| time (UTC) | temp F | wind direction | speed MPH | gust MPH | rain 1hr in | rain 24hr in | rain mn in | humidity % | barometer mb |
| 20260904221703 | 101 | 198 | 5.0 | 8.0 | 0.00 | 0.00 | 0.00 | 29 | 1000.0 |
| 20260904221204 | 100 | 160 | 6.0 | 12.0 | 0.00 | 0.00 | 0.00 | 30 | 1000.0 |
| 20260904220704 | 100 | 186 | 7.0 | 12.0 | 0.00 | 0.00 | 0.00 | 30 | 1000.0 |
| 20260904220204 | 100 | 198 | 9.0 | 13.0 | 0.00 | 0.00 | 0.00 | 30 | 1000.0 |
| 20260904215703 | 99 | 130 | 7.0 | 10.0 | 0.00 | 0.00 | 0.00 | 31 | 1000.0 |
| 20260904214704 | 99 | 121 | 9.0 | 14.0 | 0.00 | 0.00 | 0.00 | 31 | 1000.0 |
| 20260904214204 | 100 | 132 | 6.0 | 13.0 | 0.00 | 0.00 | 0.00 | 30 | 1000.0 |
| 20260904213704 | 101 | 161 | 6.0 | 12.0 | 0.00 | 0.00 | 0.00 | 30 | 1000.0 |
| 20260904213204 | 101 | 125 | 5.0 | 8.0 | 0.00 | 0.00 | 0.00 | 30 | 1000.0 |
| 20260904212703 | 101 | 334 | 1.0 | 6.0 | 0.00 | 0.00 | 0.00 | 30 | 1000.0 |
| 20260904212204 | 100 | 134 | 3.0 | 6.0 | 0.00 | 0.00 | 0.00 | 31 | 1000.0 |
| 20260904211204 | 101 | 174 | 6.0 | 10.0 | 0.00 | 0.00 | 0.00 | 29 | 1000.0 |
| 20260904210703 | 101 | 158 | 6.0 | 10.0 | 0.00 | 0.00 | 0.00 | 29 | 1000.0 |
| 20260904210203 | 101 | 212 | 5.0 | 10.0 | 0.00 | 0.00 | 0.00 | 30 | 1000.0 |
| 20260904205704 | 101 | 205 | 2.0 | 7.0 | 0.00 | 0.00 | 0.00 | 30 | 1000.0 |
| 20260904205204 | 101 | 146 | 4.0 | 9.0 | 0.00 | 0.00 | 0.00 | 30 | 1000.0 |
| 20260904204703 | 101 | 182 | 6.0 | 10.0 | 0.00 | 0.00 | 0.00 | 30 | 1000.0 |
| 20260904204204 | 100 | 149 | 5.0 | 9.0 | 0.00 | 0.00 | 0.00 | 30 | 1000.0 |
| 20260904203704 | 100 | 154 | 7.0 | 12.0 | 0.00 | 0.00 | 0.00 | 30 | 1000.0 |
| 20260904203204 | 100 | 178 | 8.0 | 13.0 | 0.00 | 0.00 | 0.00 | 31 | 1000.0 |
| 20260904202704 | 100 | 168 | 8.0 | 12.0 | 0.00 | 0.00 | 0.00 | 31 | 1000.0 |
| 20260904202203 | 100 | 181 | 3.0 | 8.0 | 0.00 | 0.00 | 0.00 | 33 | 1000.0 |
| 20260904201704 | 99 | 148 | 8.0 | 13.0 | 0.00 | 0.00 | 0.00 | 32 | 1000.0 |
| 20260904201204 | 100 | 170 | 7.0 | 9.0 | 0.00 | 0.00 | 0.00 | 31 | 1000.0 |
| 20260904200704 | 101 | 166 | 5.0 | 9.0 | 0.00 | 0.00 | 0.00 | 30 | 1000.0 |
| 20260904200204 | 101 | 183 | 3.0 | 9.0 | 0.00 | 0.00 | 0.00 | 31 | 1000.0 |
| 20260904195203 | 100 | 119 | 2.0 | 7.0 | 0.00 | 0.00 | 0.00 | 32 | 1000.0 |
| 20260904194704 | 99 | 210 | 1.0 | 6.0 | 0.00 | 0.00 | 0.00 | 34 | 1000.0 |
| 20260904194203 | 99 | 174 | 2.0 | 9.0 | 0.00 | 0.00 | 0.00 | 33 | 1000.0 |
| 20260904193704 | 100 | 176 | 4.0 | 8.0 | 0.00 | 0.00 | 0.00 | 34 | 1000.0 |
| 20260904193204 | 99 | 123 | 6.0 | 14.0 | 0.00 | 0.00 | 0.00 | 34 | 1000.0 |
| 20260904191703 | 99 | 200 | 3.0 | 10.0 | 0.00 | 0.00 | 0.00 | 34 | 1000.0 |
| 20260904191204 | 99 | 224 | 6.0 | 13.0 | 0.00 | 0.00 | 0.00 | 33 | 1000.0 |
| 20260904190704 | 99 | 177 | 8.0 | 15.0 | 0.00 | 0.00 | 0.00 | 33 | 1000.0 |
| 20260904190204 | 100 | 226 | 7.0 | 14.0 | 0.00 | 0.00 | 0.00 | 32 | 1000.0 |
| 20260904185704 | 99 | 253 | 6.0 | 10.0 | 0.00 | 0.00 | 0.00 | 33 | 1000.0 |
| 20260904185204 | 98 | 122 | 6.0 | 10.0 | 0.00 | 0.00 | 0.00 | 33 | 1000.0 |
| 20260904184704 | 98 | 202 | 7.0 | 13.0 | 0.00 | 0.00 | 0.00 | 34 | 1000.0 |
| 20260904184203 | 99 | 244 | 6.0 | 8.0 | 0.00 | 0.00 | 0.00 | 34 | 1000.0 |
| 20260904183703 | 98 | 161 | 4.0 | 10.0 | 0.00 | 0.00 | 0.00 | 35 | 1000.0 |
| 20260904183203 | 98 | 133 | 7.0 | 14.0 | 0.00 | 0.00 | 0.00 | 34 | 1000.0 |
| 20260904182703 | 99 | 208 | 6.0 | 9.0 | 0.00 | 0.00 | 0.00 | 32 | 1000.0 |
| 20260904181704 | 98 | 225 | 5.0 | 10.0 | 0.00 | 0.00 | 0.00 | 33 | 1000.0 |
| 20260904181203 | 98 | 235 | 5.0 | 13.0 | 0.00 | 0.00 | 0.00 | 35 | 1000.0 |
| 20260904180704 | 98 | 238 | 3.0 | 10.0 | 0.00 | 0.00 | 0.00 | 34 | 1000.0 |
| 20260904180204 | 97 | 122 | 7.0 | 13.0 | 0.00 | 0.00 | 0.00 | 35 | 1000.0 |
| 20260904175704 | 98 | 196 | 7.0 | 12.0 | 0.00 | 0.00 | 0.00 | 36 | 1000.0 |
| 20260904175204 | 97 | 200 | 5.0 | 10.0 | 0.00 | 0.00 | 0.00 | 36 | 1000.0 |
| 20260904174203 | 96 | 193 | 9.0 | 14.0 | 0.00 | 0.00 | 0.00 | 36 | 1000.0 |
| 20260904173703 | 96 | 134 | 6.0 | 12.0 | 0.00 | 0.00 | 0.00 | 38 | 1000.0 |
| 20260904173203 | 96 | 181 | 9.0 | 13.0 | 0.00 | 0.00 | 0.00 | 38 | 1000.0 |
| 20260904172206 | 96 | 194 | 9.0 | 15.0 | 0.00 | 0.00 | 0.00 | 40 | 1000.0 |
| 20260904171704 | 96 | 193 | 7.0 | 14.0 | 0.00 | 0.00 | 0.00 | 40 | 1000.0 |
| 20260904171204 | 96 | 190 | 3.0 | 13.0 | 0.00 | 0.00 | 0.00 | 41 | 1000.0 |
| 20260904170704 | 95 | 182 | 9.0 | 15.0 | 0.00 | 0.00 | 0.00 | 40 | 1000.0 |
| 20260904170204 | 96 | 190 | 2.0 | 9.0 | 0.00 | 0.00 | 0.00 | 42 | 1000.0 |
| 20260904165707 | 96 | 198 | 2.0 | 6.0 | 0.00 | 0.00 | 0.00 | 43 | 1000.0 |
| 20260904165203 | 95 | 199 | 3.0 | 7.0 | 0.00 | 0.00 | 0.00 | 44 | 1000.0 |
| 20260904164704 | 94 | 278 | 6.0 | 10.0 | 0.00 | 0.00 | 0.00 | 44 | 1000.0 |
| 20260904164204 | 94 | 195 | 9.0 | 13.0 | 0.00 | 0.00 | 0.00 | 44 | 1000.0 |
| 20260904163704 | 94 | 195 | 6.0 | 14.0 | 0.00 | 0.00 | 0.00 | 45 | 1000.0 |
| 20260904163204 | 94 | 248 | 3.0 | 9.0 | 0.00 | 0.00 | 0.00 | 46 | 1000.0 |
| 20260904162703 | 94 | 202 | 4.0 | 7.0 | 0.00 | 0.00 | 0.00 | 46 | 1000.0 |
| 20260904161703 | 94 | 103 | 5.0 | 9.0 | 0.00 | 0.00 | 0.00 | 46 | 1000.0 |
| 20260904160703 | 93 | 237 | 4.0 | 8.0 | 0.00 | 0.00 | 0.00 | 48 | 1000.0 |
| 20260904160204 | 93 | 231 | 5.0 | 12.0 | 0.00 | 0.00 | 0.00 | 49 | 1000.0 |
| 20260904155703 | 93 | 214 | 5.0 | 9.0 | 0.00 | 0.00 | 0.00 | 49 | 1000.0 |
| 20260904154704 | 92 | 236 | 5.0 | 9.0 | 0.00 | 0.00 | 0.00 | 50 | 1000.0 |
| 20260904154203 | 91 | 230 | 3.0 | 8.0 | 0.00 | 0.00 | 0.00 | 51 | 1000.0 |
| 20260904153704 | 91 | 184 | 6.0 | 8.0 | 0.00 | 0.00 | 0.00 | 52 | 1000.0 |
| 20260904153204 | 91 | 235 | 5.0 | 8.0 | 0.00 | 0.00 | 0.00 | 52 | 1000.0 |
| 20260904151204 | 90 | 217 | 3.0 | 8.0 | 0.00 | 0.00 | 0.00 | 54 | 1000.0 |
| 20260904150703 | 90 | 212 | 4.0 | 8.0 | 0.00 | 0.00 | 0.00 | 55 | 1000.0 |
| 20260904145204 | 89 | 174 | 4.0 | 9.0 | 0.00 | 0.00 | 0.00 | 56 | 1000.0 |
| 20260904144203 | 89 | 216 | 5.0 | 8.0 | 0.00 | 0.00 | 0.00 | 55 | 1000.0 |
| 20260904143704 | 89 | 219 | 3.0 | 7.0 | 0.00 | 0.00 | 0.00 | 56 | 1000.0 |
| 20260904143204 | 88 | 193 | 4.0 | 9.0 | 0.00 | 0.00 | 0.00 | 57 | 1000.0 |
| 20260904142703 | 88 | 219 | 3.0 | 9.0 | 0.00 | 0.00 | 0.00 | 57 | 1000.0 |
| 20260904141203 | 87 | 214 | 5.0 | 9.0 | 0.00 | 0.00 | 0.00 | 59 | 1000.0 |
| 20260904140704 | 86 | 163 | 5.0 | 9.0 | 0.00 | 0.00 | 0.00 | 59 | 1000.0 |
| 20260904140203 | 86 | 107 | 4.0 | 9.0 | 0.00 | 0.00 | 0.00 | 61 | 1000.0 |
| 20260904135703 | 86 | 108 | 6.0 | 9.0 | 0.00 | 0.00 | 0.00 | 61 | 1000.0 |
| 20260904135204 | 86 | 155 | 4.0 | 9.0 | 0.00 | 0.00 | 0.00 | 62 | 1000.0 |
| 20260904134703 | 86 | 220 | 5.0 | 9.0 | 0.00 | 0.00 | 0.00 | 62 | 1000.0 |
| 20260904134204 | 85 | 195 | 5.0 | 8.0 | 0.00 | 0.00 | 0.00 | 63 | 1000.0 |
| 20260904133704 | 84 | 194 | 6.0 | 9.0 | 0.00 | 0.00 | 0.00 | 63 | 1000.0 |
| 20260904132704 | 84 | 215 | 5.0 | 9.0 | 0.00 | 0.00 | 0.00 | 65 | 1000.0 |
| 20260904132204 | 84 | 225 | 5.0 | 12.0 | 0.00 | 0.00 | 0.00 | 65 | 1000.0 |
| 20260904131703 | 84 | 183 | 5.0 | 10.0 | 0.00 | 0.00 | 0.00 | 65 | 1000.0 |
| 20260904131204 | 83 | 199 | 7.0 | 10.0 | 0.00 | 0.00 | 0.00 | 66 | 1000.0 |
| 20260904130704 | 83 | 194 | 9.0 | 12.0 | 0.00 | 0.00 | 0.00 | 66 | 1000.0 |
| 20260904130204 | 83 | 187 | 7.0 | 9.0 | 0.00 | 0.00 | 0.00 | 66 | 1000.0 |
| 20260904125703 | 83 | 181 | 7.0 | 9.0 | 0.00 | 0.00 | 0.00 | 66 | 1000.0 |
| 20260904125203 | 83 | 189 | 6.0 | 8.0 | 0.00 | 0.00 | 0.00 | 67 | 1000.0 |
| 20260904124704 | 82 | 201 | 5.0 | 7.0 | 0.00 | 0.00 | 0.00 | 67 | 1000.0 |
| 20260904124203 | 82 | 184 | 6.0 | 9.0 | 0.00 | 0.00 | 0.00 | 68 | 1000.0 |
| 20260904123704 | 82 | 189 | 5.0 | 9.0 | 0.00 | 0.00 | 0.00 | 68 | 1000.0 |
| 20260904123204 | 82 | 192 | 7.0 | 9.0 | 0.00 | 0.00 | 0.00 | 68 | 1000.0 |
| 20260904122704 | 82 | 199 | 5.0 | 9.0 | 0.00 | 0.00 | 0.00 | 68 | 1000.0 |
| 20260904121704 | 82 | 201 | 5.0 | 8.0 | 0.00 | 0.00 | 0.00 | 68 | 1000.0 |
| 20260904121204 | 82 | 196 | 5.0 | 8.0 | 0.00 | 0.00 | 0.00 | 68 | 1000.0 |
| 20260904120703 | 82 | 209 | 4.0 | 8.0 | 0.00 | 0.00 | 0.00 | 68 | 1000.0 |
| 20260904120204 | 82 | 204 | 4.0 | 7.0 | 0.00 | 0.00 | 0.00 | 68 | 1000.0 |
| 20260904115704 | 82 | 203 | 5.0 | 9.0 | 0.00 | 0.00 | 0.00 | 68 | 1000.0 |
| 20260904115203 | 82 | 192 | 5.0 | 8.0 | 0.00 | 0.00 | 0.00 | 68 | 1000.0 |
| 20260904114704 | 82 | 190 | 6.0 | 9.0 | 0.00 | 0.00 | 0.00 | 68 | 1000.0 |
| 20260904114204 | 82 | 197 | 5.0 | 7.0 | 0.00 | 0.00 | 0.00 | 68 | 1000.0 |
| 20260904113703 | 82 | 206 | 3.0 | 7.0 | 0.00 | 0.00 | 0.00 | 68 | 1000.0 |
| 20260904113204 | 82 | 197 | 3.0 | 6.0 | 0.00 | 0.00 | 0.00 | 68 | 1000.0 |
| 20260904111704 | 82 | 201 | 5.0 | 6.0 | 0.00 | 0.00 | 0.00 | 70 | 1000.0 |
| 20260904111204 | 81 | 196 | 3.0 | 5.0 | 0.00 | 0.00 | 0.00 | 72 | 1000.0 |
| 20260904110703 | 81 | 179 | 3.0 | 6.0 | 0.00 | 0.00 | 0.00 | 72 | 1000.0 |
| 20260904105204 | 81 | 169 | 3.0 | 6.0 | 0.00 | 0.00 | 0.00 | 70 | 1000.0 |
| 20260904104703 | 81 | 180 | 4.0 | 7.0 | 0.00 | 0.00 | 0.00 | 69 | 1000.0 |
| 20260904104204 | 81 | 179 | 5.0 | 7.0 | 0.00 | 0.00 | 0.00 | 70 | 1000.0 |
| 20260904103703 | 81 | 185 | 2.0 | 3.0 | 0.00 | 0.00 | 0.00 | 70 | 1000.0 |
| 20260904103204 | 81 | 175 | 3.0 | 5.0 | 0.00 | 0.00 | 0.00 | 70 | 1000.0 |
| 20260904102704 | 81 | 175 | 2.0 | 5.0 | 0.00 | 0.00 | 0.00 | 70 | 1000.0 |
| 20260904102203 | 81 | 150 | 1.0 | 2.0 | 0.00 | 0.00 | 0.00 | 70 | 1000.0 |
| 20260904101704 | 81 | 157 | 2.0 | 3.0 | 0.00 | 0.00 | 0.00 | 70 | 1000.0 |
| 20260904101203 | 81 | 159 | 2.0 | 3.0 | 0.00 | 0.00 | 0.00 | 70 | 1000.0 |
| 20260904100703 | 81 | 106 | 1.0 | 2.0 | 0.00 | 0.00 | 0.00 | 70 | 1000.0 |
| 20260904100204 | 81 | 98 | 1.0 | 3.0 | 0.00 | 0.00 | 0.00 | 71 | 1000.0 |
| 20260904095704 | 80 | 123 | 2.0 | 5.0 | 0.00 | 0.00 | 0.00 | 71 | 1000.0 |
| 20260904094704 | 80 | 121 | 3.0 | 5.0 | 0.00 | 0.00 | 0.00 | 71 | 1000.0 |
| 20260904094203 | 80 | 126 | 3.0 | 5.0 | 0.00 | 0.00 | 0.00 | 70 | 1000.0 |
| 20260904093703 | 81 | 114 | 4.0 | 6.0 | 0.00 | 0.00 | 0.00 | 70 | 1000.0 |
| 20260904093203 | 81 | 138 | 5.0 | 6.0 | 0.00 | 0.00 | 0.00 | 69 | 1000.0 |
| 20260904092704 | 81 | 140 | 3.0 | 5.0 | 0.00 | 0.00 | 0.00 | 68 | 1000.0 |
| 20260904092204 | 81 | 140 | 3.0 | 5.0 | 0.00 | 0.00 | 0.00 | 68 | 1000.0 |
| 20260904091704 | 81 | 142 | 4.0 | 6.0 | 0.00 | 0.00 | 0.00 | 68 | 1000.0 |
| 20260904091203 | 81 | 148 | 3.0 | 5.0 | 0.00 | 0.00 | 0.00 | 67 | 1000.0 |
| 20260904090704 | 81 | 151 | 3.0 | 5.0 | 0.00 | 0.00 | 0.00 | 67 | 1000.0 |
| 20260904085703 | 81 | 139 | 5.0 | 6.0 | 0.00 | 0.00 | 0.00 | 67 | 1000.0 |
| 20260904085204 | 81 | 142 | 3.0 | 6.0 | 0.00 | 0.00 | 0.00 | 66 | 1000.0 |
| 20260904084704 | 81 | 136 | 3.0 | 6.0 | 0.00 | 0.00 | 0.00 | 66 | 1000.0 |
| 20260904084203 | 81 | 149 | 3.0 | 6.0 | 0.00 | 0.00 | 0.00 | 67 | 1000.0 |
| 20260904083203 | 81 | 132 | 4.0 | 6.0 | 0.00 | 0.00 | 0.00 | 67 | 1000.0 |
| 20260904082704 | 82 | 124 | 4.0 | 6.0 | 0.00 | 0.00 | 0.00 | 66 | 1000.0 |
| 20260904082203 | 82 | 128 | 5.0 | 6.0 | 0.00 | 0.00 | 0.00 | 65 | 1000.0 |
| 20260904081704 | 82 | 123 | 3.0 | 5.0 | 0.00 | 0.00 | 0.00 | 63 | 1000.0 |
| 20260904080703 | 83 | 171 | 3.0 | 6.0 | 0.00 | 0.00 | 0.00 | 62 | 1000.0 |
| 20260904080204 | 83 | 190 | 2.0 | 3.0 | 0.00 | 0.00 | 0.00 | 63 | 1000.0 |
| 20260904075704 | 83 | 198 | 3.0 | 5.0 | 0.00 | 0.00 | 0.00 | 63 | 1000.0 |
| 20260904075203 | 83 | 187 | 2.0 | 3.0 | 0.00 | 0.00 | 0.00 | 63 | 1000.0 |
| 20260904074704 | 82 | 156 | 2.0 | 5.0 | 0.00 | 0.00 | 0.00 | 63 | 1000.0 |
| 20260904074203 | 82 | 143 | 3.0 | 6.0 | 0.00 | 0.00 | 0.00 | 64 | 1000.0 |
| 20260904073704 | 82 | 136 | 5.0 | 7.0 | 0.00 | 0.00 | 0.00 | 64 | 1000.0 |
| 20260904073203 | 82 | 132 | 5.0 | 7.0 | 0.00 | 0.00 | 0.00 | 63 | 1000.0 |
| 20260904072703 | 83 | 140 | 5.0 | 7.0 | 0.00 | 0.00 | 0.00 | 63 | 1000.0 |
| 20260904071703 | 82 | 136 | 5.0 | 9.0 | 0.00 | 0.00 | 0.00 | 64 | 1000.0 |
| 20260904070703 | 83 | 133 | 5.0 | 7.0 | 0.00 | 0.00 | 0.00 | 62 | 1000.0 |
| 20260904070204 | 84 | 133 | 5.0 | 6.0 | 0.00 | 0.00 | 0.00 | 59 | 1000.0 |
| 20260904065704 | 85 | 151 | 3.0 | 5.0 | 0.00 | 0.00 | 0.00 | 58 | 1000.0 |
| 20260904065203 | 85 | 170 | 5.0 | 7.0 | 0.00 | 0.00 | 0.00 | 57 | 1000.0 |
| 20260904064704 | 85 | 171 | 6.0 | 8.0 | 0.00 | 0.00 | 0.00 | 56 | 1000.0 |
| 20260904064203 | 85 | 184 | 5.0 | 8.0 | 0.00 | 0.00 | 0.00 | 56 | 1000.0 |
| 20260904063203 | 86 | 174 | 6.0 | 9.0 | 0.00 | 0.00 | 0.00 | 55 | 1000.0 |
| 20260904062703 | 86 | 180 | 6.0 | 9.0 | 0.00 | 0.00 | 0.00 | 55 | 1000.0 |
| 20260904062204 | 86 | 178 | 6.0 | 9.0 | 0.00 | 0.00 | 0.00 | 55 | 1000.0 |
| 20260904061703 | 86 | 192 | 6.0 | 9.0 | 0.00 | 0.00 | 0.00 | 55 | 1000.0 |
| 20260904061204 | 86 | 188 | 6.0 | 9.0 | 0.00 | 0.00 | 0.00 | 55 | 1000.0 |
| 20260904060703 | 86 | 186 | 6.0 | 8.0 | 0.00 | 0.00 | 0.00 | 55 | 1000.0 |
| 20260904060203 | 86 | 185 | 4.0 | 8.0 | 0.00 | 0.00 | 0.00 | 55 | 1000.0 |
| 20260904055204 | 86 | 177 | 5.0 | 7.0 | 0.00 | 0.00 | 0.00 | 54 | 1000.0 |
| 20260904054704 | 86 | 179 | 6.0 | 8.0 | 0.00 | 0.00 | 0.00 | 54 | 1000.0 |
| 20260904054203 | 87 | 181 | 5.0 | 8.0 | 0.00 | 0.00 | 0.00 | 53 | 1000.0 |
| 20260904053704 | 87 | 179 | 6.0 | 8.0 | 0.00 | 0.00 | 0.00 | 53 | 1000.0 |
| 20260904053203 | 87 | 176 | 6.0 | 10.0 | 0.00 | 0.00 | 0.00 | 52 | 1000.0 |
| 20260904052204 | 87 | 185 | 6.0 | 10.0 | 0.00 | 0.00 | 0.00 | 52 | 1000.0 |
| 20260904051704 | 87 | 178 | 6.0 | 8.0 | 0.00 | 0.00 | 0.00 | 52 | 1000.0 |
| 20260904051203 | 87 | 167 | 6.0 | 8.0 | 0.00 | 0.00 | 0.00 | 51 | 1000.0 |
| 20260904050704 | 88 | 178 | 6.0 | 10.0 | 0.00 | 0.00 | 0.00 | 51 | 1000.0 |
| 20260904050204 | 88 | 182 | 6.0 | 9.0 | 0.00 | 0.00 | 0.00 | 51 | 1000.0 |
| 20260904045704 | 88 | 181 | 5.0 | 8.0 | 0.00 | 0.00 | 0.00 | 50 | 1000.0 |
| 20260904045203 | 88 | 178 | 6.0 | 8.0 | 0.00 | 0.00 | 0.00 | 50 | 1000.0 |
| 20260904043703 | 88 | 176 | 7.0 | 12.0 | 0.00 | 0.00 | 0.00 | 50 | 1000.0 |
| 20260904043203 | 88 | 167 | 8.0 | 12.0 | 0.00 | 0.00 | 0.00 | 49 | 1000.0 |
| 20260904042704 | 88 | 167 | 9.0 | 14.0 | 0.00 | 0.00 | 0.00 | 49 | 1000.0 |
| 20260904042204 | 88 | 175 | 8.0 | 13.0 | 0.00 | 0.00 | 0.00 | 49 | 1000.0 |
| 20260904040704 | 89 | 164 | 9.0 | 12.0 | 0.00 | 0.00 | 0.00 | 48 | 1000.0 |
| 20260904040204 | 89 | 167 | 7.0 | 13.0 | 0.00 | 0.00 | 0.00 | 48 | 1000.0 |
| 20260904035703 | 89 | 165 | 8.0 | 13.0 | 0.00 | 0.00 | 0.00 | 47 | 1000.0 |
| 20260904035204 | 90 | 174 | 7.0 | 10.0 | 0.00 | 0.00 | 0.00 | 47 | 1000.0 |
| 20260904034703 | 90 | 163 | 6.0 | 9.0 | 0.00 | 0.00 | 0.00 | 47 | 1000.0 |
| 20260904034203 | 90 | 162 | 6.0 | 10.0 | 0.00 | 0.00 | 0.00 | 46 | 1000.0 |
| 20260904033704 | 90 | 154 | 7.0 | 12.0 | 0.00 | 0.00 | 0.00 | 46 | 1000.0 |
| 20260904033203 | 90 | 165 | 9.0 | 14.0 | 0.00 | 0.00 | 0.00 | 45 | 1000.0 |
| 20260904032704 | 90 | 173 | 10.0 | 15.0 | 0.00 | 0.00 | 0.00 | 45 | 1000.0 |
| 20260904032203 | 90 | 171 | 8.0 | 13.0 | 0.00 | 0.00 | 0.00 | 46 | 1000.0 |
| 20260904031704 | 90 | 175 | 8.0 | 13.0 | 0.00 | 0.00 | 0.00 | 46 | 1000.0 |
| 20260904030703 | 90 | 170 | 9.0 | 13.0 | 0.00 | 0.00 | 0.00 | 46 | 1000.0 |
| 20260904025703 | 91 | 173 | 9.0 | 13.0 | 0.00 | 0.00 | 0.00 | 45 | 1000.0 |
| 20260904024704 | 91 | 175 | 9.0 | 12.0 | 0.00 | 0.00 | 0.00 | 44 | 1000.0 |
| 20260904024203 | 91 | 167 | 7.0 | 12.0 | 0.00 | 0.00 | 0.00 | 44 | 1000.0 |
| 20260904023704 | 91 | 174 | 7.0 | 10.0 | 0.00 | 0.00 | 0.00 | 44 | 1000.0 |
| 20260904023204 | 91 | 164 | 9.0 | 12.0 | 0.00 | 0.00 | 0.00 | 44 | 1000.0 |
| 20260904022704 | 91 | 170 | 6.0 | 9.0 | 0.00 | 0.00 | 0.00 | 43 | 1000.0 |
| 20260904022203 | 92 | 172 | 7.0 | 10.0 | 0.00 | 0.00 | 0.00 | 43 | 1000.0 |
| 20260904021704 | 92 | 157 | 7.0 | 9.0 | 0.00 | 0.00 | 0.00 | 43 | 1000.0 |
| 20260904021203 | 92 | 162 | 6.0 | 10.0 | 0.00 | 0.00 | 0.00 | 43 | 1000.0 |
| 20260904020704 | 92 | 155 | 6.0 | 9.0 | 0.00 | 0.00 | 0.00 | 43 | 1000.0 |
| 20260904020203 | 92 | 155 | 7.0 | 10.0 | 0.00 | 0.00 | 0.00 | 42 | 1000.0 |
| 20260904015703 | 92 | 171 | 7.0 | 9.0 | 0.00 | 0.00 | 0.00 | 42 | 1000.0 |
| 20260904015204 | 92 | 153 | 6.0 | 10.0 | 0.00 | 0.00 | 0.00 | 42 | 1000.0 |
| 20260904014204 | 93 | 128 | 5.0 | 8.0 | 0.00 | 0.00 | 0.00 | 41 | 1000.0 |
| 20260904013704 | 93 | 157 | 5.0 | 9.0 | 0.00 | 0.00 | 0.00 | 41 | 1000.0 |
| 20260904013204 | 93 | 159 | 5.0 | 8.0 | 0.00 | 0.00 | 0.00 | 40 | 1000.0 |
| 20260904012204 | 94 | 165 | 6.0 | 9.0 | 0.00 | 0.00 | 0.00 | 39 | 1000.0 |
| 20260904011704 | 94 | 174 | 5.0 | 7.0 | 0.00 | 0.00 | 0.00 | 39 | 1000.0 |
| 20260904011203 | 94 | 157 | 4.0 | 7.0 | 0.00 | 0.00 | 0.00 | 39 | 1000.0 |
| 20260904010204 | 95 | 179 | 5.0 | 7.0 | 0.00 | 0.00 | 0.00 | 38 | 1000.0 |
| 20260904005703 | 95 | 171 | 5.0 | 9.0 | 0.00 | 0.00 | 0.00 | 37 | 1000.0 |
| 20260904005204 | 95 | 178 | 5.0 | 7.0 | 0.00 | 0.00 | 0.00 | 37 | 1000.0 |
| 20260904004703 | 95 | 167 | 5.0 | 8.0 | 0.00 | 0.00 | 0.00 | 37 | 1000.0 |
| 20260904003704 | 96 | 165 | 5.0 | 7.0 | 0.00 | 0.00 | 0.00 | 36 | 1000.0 |
| 20260904001703 | 97 | 173 | 5.0 | 8.0 | 0.00 | 0.00 | 0.00 | 34 | 1000.0 |
| 20260904001204 | 97 | 150 | 6.0 | 8.0 | 0.00 | 0.00 | 0.00 | 34 | 1000.0 |
| 20260904000704 | 98 | 137 | 4.0 | 8.0 | 0.00 | 0.00 | 0.00 | 33 | 1000.0 |
| 20260904000204 | 98 | 179 | 6.0 | 9.0 | 0.00 | 0.00 | 0.00 | 32 | 1000.0 |
| 20260903235704 | 98 | 148 | 6.0 | 9.0 | 0.00 | 0.00 | 0.00 | 32 | 1000.0 |
| 20260903235203 | 99 | 141 | 5.0 | 12.0 | 0.00 | 0.00 | 0.00 | 32 | 1000.0 |
| 20260903233203 | 99 | 168 | 7.0 | 12.0 | 0.00 | 0.00 | 0.00 | 30 | 1000.0 |
| 20260903232704 | 99 | 135 | 6.0 | 10.0 | 0.00 | 0.00 | 0.00 | 30 | 1000.0 |
| 20260903232203 | 100 | 170 | 9.0 | 13.0 | 0.00 | 0.00 | 0.00 | 29 | 1000.0 |
| 20260903231703 | 100 | 179 | 7.0 | 12.0 | 0.00 | 0.00 | 0.00 | 28 | 1000.0 |
| 20260903231204 | 100 | 181 | 5.0 | 9.0 | 0.00 | 0.00 | 0.00 | 29 | 1000.0 |
| 20260903230703 | 100 | 180 | 7.0 | 10.0 | 0.00 | 0.00 | 0.00 | 29 | 1000.0 |
| 20260903230204 | 100 | 164 | 7.0 | 10.0 | 0.00 | 0.00 | 0.00 | 29 | 1000.0 |
| 20260903225704 | 100 | 169 | 6.0 | 10.0 | 0.00 | 0.00 | 0.00 | 29 | 1000.0 |
| 20260903224703 | 100 | 193 | 6.0 | 10.0 | 0.00 | 0.00 | 0.00 | 28 | 1000.0 |
| 20260903224204 | 100 | 179 | 9.0 | 14.0 | 0.00 | 0.00 | 0.00 | 28 | 1000.0 |
| 20260903223704 | 100 | 170 | 10.0 | 16.0 | 0.00 | 0.00 | 0.00 | 28 | 1000.0 |
| 20260903222703 | 100 | 177 | 9.0 | 12.0 | 0.00 | 0.00 | 0.00 | 28 | 1000.0 |